[[{"header":{"parameterUnit":"m.s-1","parameterCategory":1,"la1":30.2992,"la2":30.254,"lo1":-89.0895,"lo2":-89.0443,"dy":0.0025,"dx":0.0025,"nx":19,"ny":19,"refTime":"2026-05-20T09:00:00:Z","depth":0,"parameterNumber":2,"parameterNumberName":"U-component_of_WINDS"},"data":[0,0,0,-0.0421,-0.0421,-0.0446,-0.0446,-0.0473,-0.0474,0,0,0,0,0,0,0,0,0,0,0,-0.041,-0.041,-0.0421,-0.0421,-0.0446,-0.0446,-0.0473,-0.0474,0,0,0,0,0,0,0,0,0,0,0,-0.041,-0.041,-0.0411,-0.0421,-0.0446,-0.0446,-0.0473,-0.0456,0,0,0,0,0,0,0,0,0,0,-0.0433,-0.042,-0.041,-0.0411,-0.0421,-0.0446,-0.0446,-0.0456,-0.0457,-0.046,0,-0.0461,0,-0.0468,-0.0475,-0.0475,0,0,0,-0.0424,-0.0419,-0.0428,-0.0411,-0.0422,-0.0446,-0.0436,-0.0457,-0.0459,-0.0462,-0.0462,-0.0463,-0.0468,-0.0475,-0.0475,-0.0483,-0.0483,0,0,-0.0422,-0.0413,-0.0427,-0.0429,-0.0425,-0.0435,-0.0436,-0.0458,-0.0457,-0.0462,-0.0464,-0.0469,-0.0475,-0.0476,-0.0483,-0.0483,0,0,0,-0.0417,-0.0412,-0.0421,-0.0428,-0.0433,-0.0435,-0.0437,-0.0456,-0.046,-0.0464,-0.0469,-0.0476,-0.0476,-0.0483,-0.0483,-0.047,0,0,0,-0.0416,-0.0409,-0.042,-0.0415,-0.0432,-0.0445,-0.0435,-0.0458,-0.0461,-0.0469,-0.0476,-0.0476,-0.0483,-0.0483,-0.0471,-0.0466,0,0,0,-0.041,-0.0408,-0.0411,-0.0415,-0.0425,-0.0444,-0.0449,-0.0459,-0.0464,-0.0475,-0.0476,-0.0483,-0.0483,-0.0471,-0.0467,-0.0465,0,0,0,-0.0401,-0.0399,-0.041,-0.0411,-0.0425,-0.0436,-0.0449,-0.0459,-0.0467,-0.0476,-0.0483,-0.0483,-0.0472,-0.0467,-0.0466,-0.0463,-0.046,0,0,-0.0394,-0.0398,-0.0399,-0.041,-0.0417,-0.0433,-0.0439,-0.0455,-0.0465,-0.0476,-0.0477,-0.0471,-0.0467,-0.0465,-0.0451,-0.0449,0,0,0,-0.0394,-0.0395,-0.0399,-0.0406,-0.0418,-0.0429,-0.0445,-0.0451,-0.0461,-0.0469,-0.047,-0.0468,-0.0468,-0.0467,-0.0465,-0.0465,-0.0482,-0.0482,-0.0482,-0.0372,-0.0384,-0.0387,-0.0402,-0.0409,-0.0425,-0.0432,-0.0444,-0.0454,-0.0454,-0.0457,-0.0447,-0.0445,-0.0444,-0.0444,-0.0457,-0.0457,-0.0457,-0.0456,-0.0363,-0.0366,-0.038,-0.0387,-0.04,-0.0406,-0.0423,-0.043,-0.0438,-0.0445,-0.0446,-0.0453,-0.0442,-0.0442,-0.0456,-0.0456,-0.0456,-0.0456,-0.0456,-0.035,-0.0354,-0.0361,-0.0373,-0.0381,-0.0396,-0.0403,-0.0415,-0.0426,-0.0426,-0.0431,-0.0431,-0.0433,-0.0428,-0.0428,-0.0428,-0.0428,-0.0428,-0.0428,-0.0334,-0.0342,-0.0347,-0.036,-0.0366,-0.0376,-0.0393,-0.0399,-0.041,-0.0418,-0.0418,-0.0428,-0.0438,-0.0441,-0.0427,-0.0427,-0.0427,-0.0427,-0.0427,-0.0321,-0.0326,-0.0332,-0.0338,-0.0355,-0.0362,-0.0376,-0.0389,-0.0396,-0.0399,-0.041,-0.0415,-0.0421,-0.0422,-0.0424,-0.0407,-0.0407,-0.0407,-0.0407,-0.031,-0.0313,-0.0323,-0.0332,-0.0343,-0.0356,-0.0364,-0.0377,-0.0392,-0.0397,-0.0401,-0.0405,-0.0406,-0.0411,-0.0412,-0.0414,-0.0395,-0.0395,-0.0395,-0.0302,-0.0308,-0.0312,-0.0326,-0.0339,-0.0351,-0.0358,-0.0369,-0.0386,-0.0395,-0.0402,-0.0402,-0.0408,-0.041,-0.0418,-0.0421,-0.0425,0,0]},{"header":{"parameterUnit":"m.s-1","parameterCategory":1,"la1":30.2992,"la2":30.254,"lo1":-89.0895,"lo2":-89.0443,"dy":0.0025,"dx":0.0025,"nx":19,"ny":19,"refTime":"2026-05-20T09:00:00:Z","depth":0,"parameterNumber":3,"parameterNumberName":"V-component_of_WINDS"},"data":[0,0,0,1.4892,1.4892,1.4922,1.4922,1.4961,1.4962,0,0,0,0,0,0,0,0,0,0,0,1.4885,1.4886,1.4892,1.4892,1.4922,1.4922,1.4961,1.4962,0,0,0,0,0,0,0,0,0,0,0,1.4885,1.4886,1.4886,1.4893,1.4922,1.4922,1.4961,1.4938,0,0,0,0,0,0,0,0,0,0,1.4909,1.4906,1.4885,1.4886,1.4893,1.4922,1.4922,1.4937,1.494,1.4949,0,1.496,0,1.4962,1.4965,1.4965,0,0,0,1.489,1.4904,1.491,1.4886,1.4893,1.4922,1.4908,1.4938,1.4941,1.4953,1.496,1.4962,1.4962,1.4965,1.4965,1.5032,1.5033,0,0,1.4889,1.4892,1.4908,1.4912,1.4909,1.4907,1.4909,1.494,1.4948,1.4961,1.4963,1.4963,1.4965,1.4966,1.5032,1.5032,0,0,0,1.4885,1.4891,1.4896,1.491,1.4915,1.4908,1.491,1.4947,1.4948,1.4963,1.4963,1.4966,1.4966,1.5031,1.5032,1.5056,0,0,0,1.4884,1.4889,1.4895,1.4897,1.4915,1.4932,1.4916,1.4946,1.4949,1.4963,1.4966,1.4967,1.5031,1.5032,1.5055,1.5067,0,0,0,1.4883,1.4888,1.4894,1.4897,1.491,1.4931,1.4934,1.4947,1.495,1.4965,1.4967,1.5031,1.5032,1.5053,1.5065,1.5087,0,0,0,1.4881,1.4914,1.4894,1.4931,1.491,1.4946,1.4934,1.496,1.4976,1.4966,1.5031,1.5032,1.5053,1.5063,1.5085,1.5106,1.5115,0,0,1.4924,1.4919,1.494,1.4924,1.4964,1.4941,1.4985,1.4996,1.4994,1.5019,1.5021,1.5055,1.5065,1.5086,1.5162,1.5169,0,0,0,1.4955,1.497,1.498,1.4997,1.5006,1.5016,1.502,1.5024,1.5046,1.5008,1.5068,1.5074,1.5086,1.5096,1.5102,1.5113,1.5037,1.5036,1.5036,1.502,1.5017,1.5052,1.5052,1.5068,1.5072,1.5084,1.509,1.5081,1.5096,1.5103,1.515,1.5162,1.5166,1.5177,1.5113,1.5113,1.5114,1.5114,1.5083,1.5105,1.5093,1.5123,1.5119,1.5143,1.5149,1.5142,1.5164,1.5144,1.5154,1.5134,1.5174,1.5184,1.5115,1.5115,1.5115,1.5115,1.5115,1.5126,1.5136,1.5141,1.5164,1.5182,1.518,1.5203,1.5198,1.5193,1.5203,1.5211,1.5211,1.5211,1.5207,1.5208,1.5208,1.5208,1.5208,1.5208,1.5169,1.5174,1.5194,1.5208,1.5217,1.523,1.5234,1.5243,1.5252,1.5247,1.5247,1.5237,1.5179,1.5165,1.5211,1.521,1.521,1.521,1.5209,1.5235,1.522,1.5251,1.5261,1.5276,1.5295,1.5288,1.5307,1.5314,1.5325,1.5313,1.527,1.5265,1.526,1.5248,1.5313,1.5313,1.5313,1.5313,1.5272,1.5269,1.53,1.5316,1.5332,1.5329,1.5363,1.5367,1.5368,1.5372,1.5362,1.5345,1.5341,1.5338,1.5331,1.532,1.5402,1.5402,1.5402,1.5314,1.5312,1.5343,1.5345,1.5357,1.5367,1.5399,1.5418,1.5415,1.5406,1.5375,1.5371,1.5345,1.5337,1.5327,1.5317,1.5297,0,0]}]]